Tracking 29892 objects as of 21-Nov-2024
HD Live streaming from Space Station
objects crossing your sky now

OPS 4682 DEB

Track OPS 4682 DEB now!
10-day predictions


NORAD ID: 19950
Int'l Code: 1965-027AY
Perigee: 1,268.1 km
Apogee: 1,311.0 km
Inclination: 90.2 °
Period: 111.2 minutes
Semi major axis: 7660 km
RCS: 0.0088 m2 (small)
Launch date: April 3, 1965
Source: United States (US)
Launch site: AIR FORCE WESTERN TEST RANGE (AFWTR)

Note: This is SATELLITE DEBRIS
Your satellite tracking list
Your tracking list is empty




NASA's NSSDC Master Catalog

Two Line Element Set (TLE):
1 19950U 65027AY  24326.04797621  .00000235  00000-0  81540-3 0  9998
2 19950  90.2414 356.7356 0027951 250.9411 108.8680 12.94833051622172
Source of the keplerian elements: AFSPC